Temperature
17 17 17 17 16 16 16 16 16 16 16 15 15 15 15 15 15 15 14 14 14 14 14 14 14 14 14 13 13 13 13 13 13 12 11 11 11 11 11 11 11 10 11
17 17 17 16 16 16 16 16 16 16 16 15 15 15 15 15 15 14 14 14 14 14 14 14 13 13 13 13 13 13 13 12 12 12 11 11 11 11 10 10 10 10 10
17 17 16 16 16 16 16 16 16 16 16 15 15 15 15 15 14 14 14 14 14 14 13 13 13 13 13 13 13 13 12 12 12 12 11 11 10 10 10 10 10 10 10
17 16 16 16 16 16 16 16 16 16 15 15 15 15 15 14 14 14 14 14 14 13 13 13 13 13 13 13 12 12 12 12 11 11 11 11 10 10 10 10 10 10 9
16 16 16 16 16 16 15 15 15 15 15 15 15 15 14 14 14 14 14 14 13 13 13 13 13 13 13 12 12 12 12 12 11 11 11 10 10 10 10 9 9 9 9
16 16 16 16 15 15 15 15 15 15 15 15 15 15 14 14 14 14 14 14 13 13 13 13 13 13 13 12 12 12 12 11 11 11 10 10 10 10 10 9 9 9 9
16 16 15 15 15 15 15 15 15 15 15 15 15 14 14 14 14 14 13 13 13 13 13 12 12 12 12 12 12 12 11 11 11 11 11 10 10 10 10 9 9 9 8
16 16 15 15 15 15 15 15 15 14 14 14 14 14 14 14 14 13 13 13 13 13 12 12 12 12 12 12 12 11 11 11 11 10 10 10 10 10 9 9 9 8 8
16 15 15 15 15 15 15 14 14 14 14 14 14 14 14 13 13 13 13 13 13 12 12 12 12 12 12 12 11 11 11 11 10 10 10 10 9 9 9 9 8 8 8
16 15 15 15 15 15 14 14 14 14 14 14 13 13 13 13 13 13 13 13 12 12 12 12 12 12 12 11 11 11 11 11 10 10 10 9 9 9 9 8 8 7 7
16 15 15 15 15 14 14 14 14 13 13 13 13 13 13 13 13 13 13 12 12 12 12 12 12 11 11 11 11 11 10 10 10 10 9 9 9 9 8 8 8 7 7
15 15 15 15 14 14 14 13 13 13 13 13 13 13 13 13 13 13 12 12 12 12 12 12 11 11 11 11 11 10 10 10 10 9 9 9 9 8 8 8 7 7 7
15 15 15 14 14 14 13 13 13 13 13 13 13 13 13 13 13 12 12 12 12 11 11 11 11 11 11 10 10 10 10 9 9 9 9 8 8 8 7 7 7 7 6
15 14 14 14 13 13 13 13 13 13 13 12 12 12 12 12 12 12 12 12 11 11 11 11 10 10 10 10 10 10 9 9 9 8 8 8 8 7 7 7 6 6 6
14 14 14 13 13 13 13 12 12 12 12 12 12 12 12 12 12 12 12 12 11 11 11 10 10 10 10 10 9 9 9 9 9 8 8 7 7 7 7 6 6 6 5
14 14 13 13 13 13 12 12 12 12 12 12 12 12 12 12 12 12 11 11 11 11 10 10 10 10 9 9 9 9 9 8 8 8 7 7 7 6 6 6 5 5 5
14 14 13 13 13 12 12 12 12 11 11 11 11 11 11 11 11 11 11 11 10 10 10 10 10 9 9 9 9 9 8 8 8 7 7 7 6 6 5 5 5 5 4
13 13 13 13 12 12 12 12 11 11 11 11 11 11 11 11 11 11 11 10 10 10 10 10 9 9 9 9 8 8 8 8 7 7 7 6 6 6 5 5 4 4 4
13 13 13 12 12 12 11 11 11 11 11 11 11 11 11 11 10 10 10 10 10 10 9 9 9 9 9 8 8 8 8 7 7 7 6 6 6 5 5 4 4 4 3
13 12 12 12 12 11 11 11 11 11 11 11 11 11 10 10 10 10 10 10 10 9 9 9 9 9 8 8 8 7 7 7 7 6 6 6 5 5 4 4 4 3 3
12 12 12 12 11 11 11 11 11 11 10 10 10 10 10 10 10 10 10 10 9 9 9 9 9 8 8 8 7 7 7 6 6 6 6 5 5 4 4 4 3 3 3
12 12 12 11 11 11 11 11 10 10 10 10 10 10 10 10 9 9 9 9 9 9 9 8 8 8 8 7 7 7 6 6 6 5 5 5 4 4 4 3 3 3 2
12 11 11 11 11 11 10 10 10 10 10 10 10 10 9 9 9 9 9 9 8 8 8 8 8 7 7 7 7 6 6 6 5 5 5 4 4 4 3 3 3 2 2
11 11 11 10 10 10 10 10 10 10 9 9 9 9 9 9 9 9 8 8 8 8 8 8 7 7 7 7 6 6 6 5 5 5 4 4 4 3 3 3 2 2 2
11 10 10 10 10 10 10 9 9 9 9 9 9 9 9 8 8 8 8 8 8 7 7 7 7 7 6 6 6 6 5 5 5 4 4 4 3 3 3 2 2 2 1
10 10 10 10 9 9 9 9 9 9 9 8 8 8 8 8 8 8 8 7 7 7 7 7 7 6 6 6 5 5 5 4 4 4 4 3 3 3 2 2 2 1 1
Wind_Speed
6 5 5 5 5 5 4 5 5 5 5 5 4 4 4 4 3 3 3 3 3 3 3 4 3 3 2 2 2 3 3 3 4 1 2 2 4 4 4 4 4 5 4
5 6 5 5 5 5 5 5 5 5 4 4 4 4 4 3 3 4 3 3 3 3 3 3 3 3 3 2 2 2 2 3 4 2 1 2 2 2 2 1 2 2 2
6 6 5 5 5 5 5 5 6 5 4 4 4 4 4 4 3 3 3 3 2 2 3 3 3 3 2 1 2 2 2 3 3 2 1 1 1 1 2 2 2 1 1
6 6 5 5 5 4 4 4 4 5 5 5 4 4 4 3 3 2 3 3 3 3 3 3 3 3 2 1 2 2 2 2 2 2 1 1 1 1 2 1 1 2 1
6 6 6 6 5 4 4 4 4 4 4 4 4 4 3 3 2 3 2 3 3 4 3 4 4 6 6 4 3 2 2 1 2 2 1 1 0 1 1 1 0 1 2
7 6 6 6 6 4 4 4 4 3 3 4 5 5 4 3 5 6 3 2 2 3 4 4 4 4 5 6 6 5 4 2 2 1 1 1 1 0 0 1 1 1 2
7 7 7 7 7 6 5 4 5 4 3 4 4 5 4 4 6 4 3 1 1 2 3 3 2 3 4 2 3 3 3 2 2 2 1 1 0 0 0 1 1 1 2
7 8 8 7 7 6 5 5 5 4 4 4 4 5 5 4 5 4 3 1 1 2 2 2 3 3 2 2 2 2 1 1 1 2 2 1 1 1 0 1 1 1 1
8 8 8 8 7 7 6 5 5 4 4 4 3 5 5 4 5 4 3 1 1 1 2 2 3 3 3 3 2 2 1 0 2 3 3 1 1 2 3 2 2 1 2
8 8 9 8 8 7 6 5 4 4 5 5 5 5 6 5 5 5 3 1 2 2 2 2 3 3 3 3 2 2 2 1 1 0 1 1 1 1 1 1 1 1 1
7 8 8 8 9 8 6 5 5 4 4 5 5 4 5 6 6 6 5 2 2 3 2 2 2 3 3 3 3 1 2 1 0 0 0 0 0 0 0 0 0 1 1
7 8 8 8 8 7 6 5 5 5 5 5 4 4 3 5 6 6 7 5 2 2 2 2 2 4 4 4 2 1 1 1 0 0 0 1 1 1 1 1 1 1 2
7 7 8 8 7 7 7 6 5 5 5 4 4 4 3 3 5 7 8 7 5 2 2 4 4 5 4 3 3 3 1 0 1 1 2 2 2 2 1 1 2 3 4
7 6 6 7 7 7 6 5 5 5 5 5 4 4 4 3 3 4 4 4 5 3 2 3 4 4 3 3 3 2 2 2 2 2 2 2 1 1 1 1 1 2 2
7 7 6 6 6 5 5 4 5 4 5 6 5 5 4 4 5 7 6 4 4 4 3 3 2 2 2 2 2 3 3 2 3 2 2 2 2 2 2 2 2 2 2
6 6 6 5 6 5 5 3 2 3 5 6 5 5 4 5 8 9 9 7 7 7 5 3 3 3 4 4 4 3 3 3 3 3 2 2 2 2 2 2 1 2 3
5 6 5 6 6 6 6 6 4 1 2 3 5 6 6 6 7 8 8 7 7 7 4 4 4 4 4 3 3 3 3 3 3 3 2 2 2 2 2 2 2 2 3
5 6 6 5 5 5 6 6 6 5 4 2 3 6 7 8 8 8 8 6 4 4 4 4 4 4 3 3 3 3 2 2 2 2 2 2 2 2 2 2 3 3 3
4 5 5 5 5 5 5 5 5 6 5 4 3 3 7 7 6 7 8 5 5 5 5 4 4 3 3 3 2 2 3 2 2 2 3 3 3 3 3 3 3 4 3
4 6 6 5 5 5 5 5 5 5 5 5 5 4 4 4 3 4 5 5 5 4 4 4 4 4 3 3 3 3 3 3 3 3 3 3 3 3 3 4 3 3 4
3 4 6 5 5 5 5 5 5 5 5 5 4 6 8 6 5 5 5 5 5 5 4 4 3 3 3 3 3 3 3 3 3 3 3 3 3 3 3 3 3 3 3
4 4 4 4 4 4 4 4 4 5 5 5 4 5 8 5 5 5 5 5 5 4 4 3 3 3 3 4 4 4 3 3 3 3 3 3 3 3 3 3 3 3 3
4 4 4 4 4 5 4 4 4 4 4 4 4 4 5 5 4 4 4 3 3 3 3 3 3 2 2 3 4 3 4 4 3 3 3 3 3 3 3 3 4 4 4
3 4 3 3 3 4 4 4 3 3 3 4 4 4 4 4 4 3 3 3 3 3 3 3 3 3 3 3 3 3 4 4 3 3 3 3 4 4 3 4 4 5 5
3 3 3 3 3 3 3 3 3 3 3 3 3 3 3 3 3 2 2 2 3 3 3 3 3 4 4 4 3 3 3 4 4 4 4 3 4 4 4 4 4 4 4
3 3 3 3 3 3 3 3 3 3 3 3 2 2 2 3 2 2 2 2 2 2 2 3 3 4 3 4 4 4 4 4 5 5 5 4 4 4 4 4 5 4 4
Wind_Direction
178 165 164 166 163 158 150 147 141 139 141 141 138 132 130 128 125 116 112 101 109 106 94 93 79 66 66 51 41 52 59 89 110 93 83 94 98 94 91 101 96 105 90
170 163 161 161 160 162 156 149 142 141 142 143 139 129 127 124 124 123 124 117 116 121 112 103 100 83 70 54 53 61 68 89 112 122 103 83 94 115 109 90 85 91 87
168 158 158 165 165 165 158 154 152 150 146 139 132 126 125 122 115 124 126 121 110 103 103 100 95 92 93 69 69 68 68 83 96 116 116 89 79 83 68 34 42 44 28
163 158 159 158 149 152 151 150 145 147 146 141 138 131 129 127 124 122 122 117 113 99 93 92 88 88 84 91 80 70 77 85 94 106 108 77 82 71 80 18 347 329 323
160 160 158 144 135 133 140 145 136 134 131 128 130 127 120 115 100 93 118 130 133 125 111 101 91 87 79 77 82 70 73 83 105 111 113 75 50 47 326 253 290 285 299
167 159 145 139 134 134 142 144 133 127 125 123 124 123 120 114 98 78 69 78 121 130 128 130 131 115 104 95 93 88 87 100 117 118 140 174 228 214 299 356 327 345 313
160 150 149 148 145 151 160 145 140 143 141 134 132 124 119 117 118 102 76 58 80 110 125 133 130 127 135 148 127 108 77 70 122 143 165 220 194 235 32 325 306 295 262
162 159 158 157 154 157 161 153 151 155 157 149 145 138 129 136 140 137 140 170 138 117 125 132 131 123 109 108 115 112 123 163 171 146 157 190 139 49 154 228 248 306 307
168 164 161 158 155 159 164 162 161 158 153 153 154 144 139 145 149 148 154 180 156 133 101 88 107 112 95 90 124 139 120 146 115 124 129 114 71 40 45 48 18 12 315
173 167 162 161 159 167 170 166 159 152 156 157 158 156 154 152 155 153 166 183 163 145 125 103 95 120 113 105 142 157 166 211 149 48 19 336 22 19 10 114 184 267 294
166 162 159 161 163 165 163 162 154 154 155 159 160 164 162 157 161 166 168 180 184 160 156 157 147 156 154 140 127 134 162 133 156 174 192 237 172 129 332 326 148 180 225
156 159 160 161 164 164 159 161 162 163 162 167 165 167 165 158 158 173 174 180 178 163 168 154 149 157 157 150 146 135 96 56 24 294 255 258 255 259 260 282 301 292 250
153 159 161 159 159 158 160 164 170 169 168 176 177 177 171 163 164 168 178 184 187 185 167 155 158 164 162 171 190 198 187 182 208 228 246 249 241 245 268 318 321 310 293
157 158 158 159 157 157 159 168 175 178 178 182 183 185 179 166 164 168 177 186 182 179 182 175 181 186 188 207 206 213 201 197 204 230 240 252 275 282 264 249 273 284 285
163 165 167 160 156 154 154 165 174 182 186 185 188 182 179 188 190 172 167 179 183 187 174 170 184 186 196 212 211 209 203 202 225 235 231 248 260 262 266 271 264 277 278
174 170 165 159 157 158 155 144 127 157 162 170 174 174 181 182 173 171 174 175 176 175 167 180 201 208 211 209 208 212 209 213 219 218 221 232 241 249 265 274 263 256 270
176 167 164 165 167 168 167 168 167 141 129 167 175 175 182 180 175 173 175 177 177 166 175 203 211 213 214 211 209 209 213 215 210 206 212 228 243 252 261 273 270 266 269
172 171 168 167 169 173 175 176 176 176 182 199 198 193 190 185 187 185 171 158 176 187 203 208 213 216 216 212 211 213 210 202 203 210 214 225 232 239 250 260 260 263 272
170 169 167 163 166 173 176 178 183 187 187 187 178 191 194 187 191 190 173 184 195 202 208 214 215 215 215 212 209 209 208 203 209 216 221 225 229 232 246 253 257 273 274
174 170 167 168 172 177 181 185 188 187 188 190 190 190 172 164 183 197 201 205 203 208 209 210 212 213 215 214 210 206 211 213 217 222 225 231 234 234 241 246 252 262 265
164 172 177 177 182 185 186 190 189 184 187 191 194 187 177 182 190 194 196 201 206 211 213 212 210 208 211 210 209 213 216 218 218 223 230 235 235 238 240 243 252 256 266
175 179 181 185 185 187 189 189 186 186 189 189 182 181 183 188 189 193 198 199 201 205 202 205 209 205 201 205 207 208 213 223 226 227 233 237 238 240 243 247 255 262 266
178 181 184 184 179 185 190 191 188 188 186 178 174 173 185 195 195 196 201 199 190 185 182 184 191 194 182 194 192 184 201 219 225 224 222 233 242 246 246 245 247 256 261
181 181 182 180 177 178 182 186 185 181 176 173 174 176 183 190 190 192 192 190 187 181 175 172 175 186 193 195 193 195 207 220 224 225 230 234 240 243 245 250 253 256 260
176 173 174 179 182 181 182 183 183 183 179 180 182 180 179 179 183 185 188 184 188 188 184 180 178 185 197 205 199 206 218 217 227 235 233 239 239 241 245 251 258 265 261
170 168 169 176 180 177 178 182 184 181 178 180 176 173 174 177 182 186 184 181 187 186 182 178 187 196 205 205 207 214 219 231 240 246 250 251 246 246 247 254 259 262 263
Height
1537 1539 1541 1543 1545 1547 1549 1550 1552 1553 1555 1556 1557 1558 1559 1560 1560 1561 1561 1562 1562 1563 1563 1564 1564 1564 1565 1565 1566 1566 1566 1567 1567 1568 1568 1567 1566 1566 1565 1564 1562 1561 1560
1535 1537 1539 1541 1543 1545 1547 1549 1551 1552 1554 1555 1557 1558 1558 1559 1560 1560 1561 1561 1562 1563 1563 1563 1563 1564 1564 1565 1565 1565 1566 1566 1567 1567 1567 1567 1566 1565 1564 1563 1562 1561 1560
1533 1535 1537 1539 1541 1543 1545 1547 1549 1551 1553 1554 1556 1557 1558 1558 1559 1560 1560 1561 1561 1562 1562 1562 1563 1563 1563 1564 1564 1565 1565 1565 1565 1566 1566 1566 1565 1565 1564 1563 1562 1561 1559
1530 1532 1535 1537 1539 1542 1544 1546 1548 1549 1551 1553 1554 1555 1557 1558 1558 1559 1560 1560 1561 1561 1562 1562 1562 1562 1563 1563 1563 1564 1564 1564 1564 1564 1564 1565 1564 1564 1563 1562 1561 1560 1558
1528 1530 1532 1535 1537 1540 1542 1544 1546 1548 1549 1551 1553 1554 1555 1556 1557 1558 1559 1559 1560 1560 1560 1561 1561 1562 1562 1562 1562 1562 1562 1562 1562 1562 1563 1563 1562 1562 1561 1560 1559 1558 1557
1526 1528 1530 1533 1535 1537 1540 1542 1544 1546 1548 1549 1551 1552 1553 1555 1556 1556 1557 1558 1558 1559 1559 1559 1560 1560 1561 1561 1561 1561 1561 1561 1561 1561 1561 1561 1561 1560 1560 1559 1558 1556 1555
1524 1526 1528 1530 1533 1535 1538 1540 1542 1544 1546 1547 1549 1551 1552 1553 1554 1555 1556 1557 1557 1558 1558 1558 1559 1559 1559 1559 1559 1560 1560 1560 1560 1560 1559 1559 1559 1558 1558 1557 1556 1555 1554
1521 1523 1526 1528 1530 1533 1535 1537 1539 1542 1544 1545 1547 1549 1550 1551 1552 1553 1554 1555 1555 1556 1556 1557 1557 1557 1557 1557 1557 1558 1558 1558 1558 1558 1558 1558 1558 1557 1556 1555 1554 1553 1552
1519 1521 1523 1526 1528 1530 1533 1535 1537 1539 1541 1543 1545 1546 1548 1549 1550 1551 1552 1553 1554 1554 1555 1555 1555 1555 1556 1556 1556 1556 1556 1556 1556 1556 1556 1556 1556 1555 1554 1553 1551 1550 1548
1516 1518 1521 1523 1525 1528 1530 1533 1535 1537 1539 1540 1542 1544 1545 1547 1548 1549 1550 1551 1551 1552 1552 1553 1553 1553 1554 1554 1554 1554 1553 1554 1554 1554 1554 1553 1553 1552 1551 1550 1549 1548 1546
1514 1516 1518 1520 1523 1525 1528 1530 1532 1534 1536 1538 1540 1541 1543 1544 1545 1547 1548 1548 1549 1549 1550 1550 1551 1551 1551 1552 1552 1552 1552 1552 1551 1551 1551 1551 1550 1549 1549 1548 1547 1545 1544
1511 1513 1515 1518 1520 1522 1525 1527 1530 1532 1533 1535 1537 1538 1540 1541 1543 1544 1545 1546 1547 1547 1547 1548 1548 1549 1549 1550 1550 1550 1550 1549 1549 1549 1548 1547 1547 1546 1546 1545 1544 1543 1541
1508 1511 1513 1515 1517 1519 1521 1524 1526 1529 1530 1532 1533 1535 1536 1537 1539 1541 1542 1543 1544 1544 1545 1545 1546 1546 1546 1547 1547 1547 1547 1546 1546 1545 1545 1544 1544 1543 1542 1541 1540 1539 1538
1505 1508 1510 1512 1514 1516 1518 1521 1523 1525 1526 1528 1530 1531 1533 1534 1536 1537 1538 1539 1540 1541 1542 1542 1543 1543 1544 1544 1544 1544 1544 1543 1543 1542 1542 1541 1541 1540 1539 1537 1536 1535 1533
1502 1505 1507 1509 1511 1513 1515 1517 1519 1521 1523 1525 1526 1528 1529 1530 1532 1534 1535 1536 1537 1538 1539 1539 1540 1540 1540 1540 1540 1540 1540 1539 1539 1538 1538 1537 1537 1536 1535 1534 1532 1531 1529
1499 1501 1503 1506 1508 1510 1512 1514 1516 1518 1520 1522 1523 1525 1526 1528 1529 1530 1531 1532 1533 1534 1535 1535 1535 1536 1536 1536 1536 1536 1536 1535 1535 1535 1534 1533 1532 1531 1531 1530 1528 1527 1525
1496 1498 1500 1502 1505 1507 1509 1511 1512 1515 1517 1518 1520 1521 1523 1524 1525 1526 1527 1529 1529 1530 1530 1530 1531 1532 1532 1532 1532 1532 1531 1531 1531 1531 1530 1529 1528 1528 1527 1525 1524 1523 1521
1494 1495 1497 1499 1501 1503 1505 1507 1509 1511 1512 1514 1516 1517 1519 1520 1521 1522 1524 1525 1525 1525 1525 1526 1526 1527 1527 1528 1528 1528 1527 1527 1527 1526 1526 1525 1524 1523 1522 1521 1520 1519 1517
1491 1492 1494 1496 1498 1500 1502 1504 1506 1507 1509 1510 1511 1513 1515 1516 1517 1518 1519 1519 1519 1520 1521 1521 1522 1522 1523 1523 1523 1523 1523 1523 1522 1522 1521 1521 1520 1519 1518 1517 1516 1515 1513
1488 1489 1491 1493 1495 1497 1499 1501 1502 1504 1505 1506 1507 1509 1510 1511 1512 1513 1513 1514 1515 1515 1516 1517 1517 1517 1518 1518 1518 1519 1518 1518 1518 1517 1517 1516 1515 1514 1513 1512 1511 1510 1509
1484 1486 1488 1490 1492 1493 1495 1497 1499 1500 1501 1503 1504 1505 1506 1507 1508 1509 1509 1510 1510 1511 1512 1512 1513 1513 1513 1513 1513 1513 1513 1513 1512 1512 1512 1511 1510 1509 1509 1508 1507 1506 1504
1481 1483 1485 1486 1488 1490 1492 1494 1495 1496 1498 1499 1500 1501 1503 1504 1504 1505 1505 1506 1506 1507 1507 1508 1508 1508 1508 1508 1508 1508 1507 1507 1507 1507 1506 1505 1505 1504 1504 1503 1502 1500 1499
1479 1480 1482 1483 1485 1486 1488 1490 1491 1493 1494 1495 1496 1497 1498 1499 1500 1501 1501 1502 1502 1503 1503 1503 1503 1503 1503 1504 1503 1503 1502 1502 1502 1502 1501 1500 1499 1499 1498 1497 1496 1495 1494
1475 1477 1478 1480 1481 1483 1484 1486 1487 1489 1490 1491 1492 1493 1494 1495 1496 1497 1497 1498 1498 1498 1499 1499 1499 1499 1499 1499 1498 1498 1498 1497 1497 1496 1496 1495 1494 1493 1492 1492 1491 1490 1489
1472 1473 1474 1476 1478 1479 1481 1482 1484 1485 1486 1487 1488 1489 1490 1491 1492 1493 1493 1493 1494 1494 1494 1494 1494 1494 1494 1494 1493 1493 1493 1492 1492 1491 1490 1489 1489 1488 1487 1486 1485 1484 1483
1468 1469 1471 1472 1474 1476 1477 1478 1480 1481 1482 1483 1484 1485 1486 1487 1488 1489 1489 1489 1489 1489 1489 1489 1489 1489 1489 1489 1488 1488 1487 1487 1486 1485 1485 1484 1483 1482 1481 1480 1480 1479 1478